This demonstration page uses our WeatherBlox Daily Observations layout. Learn more.

Left ArrowRight Arrow

39.92423, -83.80882

Hourly Observations for July 8, 2022

Temp ( °F °C ) Dew Point ( °F °C ) Humidity (%) Winds ( mph kmh ) Pressure ( in mb ) Visibility ( mi km ) Precip ( " mm )
12:56 am 00:56 Clear 70 21 N/A N/A ENE 5 7 30.02 1017 10 16 0.00 0.00
1:56 am 01:56 Clear 70 21.1 70 21.1 100 100 E 3 6 30.02 1017 10 16 0.01 0.25
2:56 am 02:56 Clear 70 21 N/A N/A E 5 7 30.01 1016 10 16 0.00 0.00
3:56 am 03:56 Mostly Cloudy 70 21 N/A N/A ENE 5 7 30.01 1016 10 16 0.00 0.00
4:56 am 04:56 Mostly Clear with Light Rain 70 21 N/A N/A E 5 7 30.01 1016 10 16 0.00 0.00
5:56 am 05:56 Cloudy with Light Rain 70 21 N/A N/A Calm 30.01 1016 10 16 0.00 0.00
6:56 am 06:56 Cloudy 70 21 N/A N/A E 5 7 30.02 1017 10 16 0.00 0.00
7:56 am 07:56 Cloudy with Light Rain 70 21 N/A N/A E 7 11 30.03 1017 10 16 0.00 0.00
8:56 am 08:56 Cloudy 72 22 N/A N/A E 9 15 30.04 1017 10 16 0.00 0.00
9:56 am 09:56 Cloudy with Light Rain 72 22 N/A N/A Calm 30.05 1018 10 16 0.00 0.00
10:56 am 10:56 Cloudy with Light Rain 72 22 N/A N/A E 8 13 30.05 1018 10 16 0.00 0.00
11:56 am 11:56 Cloudy 72 22 N/A N/A SE 9 15 30.05 1018 10 16 0.00 0.00
12:56 pm 12:56 Cloudy 72 22 N/A N/A ESE 9 15 30.04 1017 10 16 0.00 0.00
1:52 pm 13:52 Cloudy 72 22 N/A N/A ESE 10 17 30.00 1016 10 16 0.00 0.00
1:56 pm 13:56 Cloudy 72 22 N/A N/A ESE 10 17 30.03 1017 10 16 0.00 0.00
2:17 pm 14:17 Cloudy with Light Rain 70 21 N/A N/A ESE 8 13 30.01 1016 7 11 0.00 0.00
2:56 pm 14:56 Cloudy with Light Rain N/A N/A N/A E 8 13 N/A 8 13 0.00 0.00
3:20 pm 15:20 Cloudy with Rain N/A N/A N/A ENE 14 22 N/A 6 10 0.00 0.00
3:56 pm 15:56 Cloudy with Light Rain 70 21 N/A N/A ENE 10 17 30.01 1016 10 16 0.00 0.00
4:56 pm 16:56 Cloudy 70 21 N/A N/A ENE 9 15 30.01 1016 10 16 0.00 0.00
5:29 pm 17:29 Cloudy 70 21 N/A N/A ENE 12 19 29.99 1016 8 13 0.00 0.00
5:56 pm 17:56 Cloudy 70 21 N/A N/A ENE 10 17 30.00 1016 10 16 0.00 0.00
6:04 pm 18:04 Cloudy 70 21 N/A N/A ENE 12 19 29.98 1015 10 16 0.00 0.00
6:56 pm 18:56 Cloudy 70 21 N/A N/A E 9 15 30.02 1017 10 16 0.00 0.00
7:56 pm 19:56 Cloudy 70 21 N/A N/A E 9 15 30.01 1016 10 16 0.00 0.00
8:13 pm 20:13 Cloudy 70 21 70 21 100 100 ENE 8 13 30.00 1016 10 16 0.00 0.00
8:56 pm 20:56 Cloudy 70 21 N/A N/A ENE 7 11 30.02 1017 10 16 0.00 0.00
9:56 pm 21:56 Cloudy 68 20 N/A N/A E 7 11 30.03 1017 9 14 0.00 0.00
10:56 pm 22:56 Cloudy 68 20 N/A N/A E 12 19 30.05 1018 10 16 0.00 0.00
11:56 pm 23:56 Cloudy 66 19 N/A N/A ENE 9 15 30.06 1018 8 13 0.00 0.00

Powered by AerisWeather